User: anonymous   Login
Location: Putah Creek Observatory
(38.7021°N, 122.3865°W)
Time: 01:29:13
(UTC-07:00)
Language:

Cosmos 2227 Rocket - Orbit

View from above orbital plane
View from above orbital plane
View from above satellite
View from above satellite

Ground track
Ground track

The orbit data is extracted from the following two-line orbital elements,

1 22285U 92093B   19111.78285436 -.00000281 +00000-0 -12026-3 0  9995
2 22285 071.0219 239.2179 0004946 209.7840 150.3002 14.15032875357548
Epoch (UTC): 21 April 2019 18:47:18
Eccentricity: 0.0004946
inclination: 71.0219°
perigee height: 838 km
apogee height: 846 km
right ascension of ascending node: 239.2179°
argument of perigee: 209.7840°
revolutions per day: 14.15032875
mean anomaly at epoch: 150.3002°
orbit number at epoch: 35754

The dashed part of the orbit path shows where the satellite is in the earth's shadow,  

DLR